SCP
0 0 0 0 0 0 0 0 0 0 0 0 0 0 0 0 0 0 0 0 0 0 0 0 0 0 0 0 0 0 0 0 0 0 0 0 0 0 0 0 0 0 0
0 0 0 0 0 0 0 0 0 0 0 0 0 0 0 0 0 0 0 0 0 0 0 0 0 0 0 0 0 0 0 0 0 0 0 0 0 0 0 0 0 0 0
0 0 0 0 0 0 0 0 0 0 0 0 0 0 0 0 0 0 0 0 0 0 0 0 0 0 0 0 0 0 0 0 0 0 0 0 0 0 0 0 0 0 0
0 0 0 0 0 0 0 0 0 0 0 0 0 0 0 0 0 0 0 0 0 0 0 0 0 0 0 0 0 0 0 0 0 0 0 0 0 0 0 0 0 0 0
0 0 0 0 0 0 0 0 0 0 0 0 0 0 0 0 0 0 0 0 0 0 0 0 0 0 0 0 0 0 0 0 0 0 0 0 0 0 0 0 0 0 -0
0 0 0 0 0 0 0 0 0 0 0 0 0 0 0 0 0 0 0 0 0 0 0 0 0 0 0 0 0 0 0 0 0 0 0 0 0 0 0 0 0 0 -0
0 0 0 0 0 0 0 0 0 0 0 0 0 0 0 0 0 0 0 0 0 0 0 0 0 0 0 0 0 0 0 0 0 0 0 0 0 0 0 0 0 0 0
0 0 0 0 0 0 0 0 0 0 0 0 0 0 0 0 0 0 0 0 0 0 0 0 0 0 0 0 0 0 0 0 0 0 0 0 0 0 0 0 0 0 0
0 0 0 0 0 0 0 0 0 0 0 0 0 0 0 0 0 0 0 0 0 0 0 0 0 0 0 0 0 0 0 0 0 0 0 0 0 0 0 0 0 0 0
0 0 0 0 0 0 0 0 0 0 0 0 0 0 0 0 0 0 0 0 0 0 0 0 0 0 0 0 0 0 0 0 0 0 0 0 0 0 0 0 0 0 0
0 0 0 0 0 0 0 0 0 0 0 0 0 0 0 0 0 0 0 0 0 0 0 0 0 0 0 0 0 0 0 0 0 0 0 0 0 0 0 0 0 0 0
0 0 0 0 0 0 0 0 0 0 0 0 0 0 0 0 0 0 0 0 0 0 0 0 0 0 0 0 0 0 0 0 0 0 0 0 0 0 0 0 0 0 0
0 0 0 0 0 0 0 0 0 0 0 0 0 0 0 0 0 0 0 0 0 0 0 0 0 0 0 0 0 0 0 0 0 0 0 0 0 0 0 0 0 0 0
0 0 0 0 0 0 0 0 0 0 0 0 0 0 0 0 0 0 0 0 0 0 0 0 0 0 0 0 0 0 0 0 0 0 0 0 0 0 0 0 0 0 0
0 0 0 0 0 0 0 0 0 0 0 0 0 0 0 0 0 0 0 0 0 0 0 0 0 0 0 0 0 0 0 0 0 0 0 0 0 0 0 0 0 0 0
0 0 0 0 0 0 0 0 0 0 0 0 0 0 0 0 0 0 0 0 0 0 0 0 0 0 0 0 0 0 0 0 0 0 0 0 0 0 0 0 0 0 0
0 0 0 0 0 0 0 0 0 0 0 0 0 0 0 0 0 0 0 0 0 0 0 0 0 0 0 0 0 0 0 0 0 0 0 0 0 0 0 0 0 0 0
0 0 0 0 0 0 0 0 0 0 0 0 0 0 0 0 0 0 0 0 0 0 0 0 0 0 0 0 0 0 0 0 0 0 0 0 0 0 0 0 0 0 0
0 0 0 0 0 0 0 0 0 0 0 0 0 0 0 0 0 0 0 0 0 0 0 0 0 0 0 0 0 0 0 0 0 0 0 0 0 0 0 0 0 0 0
0 0 0 0 0 0 0 0 0 0 0 0 0 0 0 0 0 0 0 0 0 0 0 0 0 0 0 0 0 0 0 0 0 0 0 0 0 0 0 0 0 0 0
0 0 0 0 0 0 0 0 0 0 0 0 0 0 0 0 0 0 0 0 0 0 0 0 0 0 0 0 0 0 0 0 0 0 0 0 0 0 0 0 0 0 0
0 0 0 0 0 0 0 0 0 0 0 0 0 0 0 0 0 0 0 0 0 0 0 0 0 0 0 0 0 0 0 0 0 0 0 0 0 0 0 0 0 0 0
0 0 0 0 0 0 0 0 0 0 0 0 0 0 0 0 0 0 0 0 0 0 0 0 0 0 0 0 0 0 0 0 0 0 0 0 0 0 0 0 0 0 0
0 0 0 0 0 0 0 0 0 0 0 0 0 0 0 0 0 0 0 0 0 0 0 0 0 0 0 0 0 0 0 0 0 0 0 0 0 0 0 0 0 0 0
0 0 0 0 -0 0 0 0 0 0 0 0 0 0 0 0 0 0 0 0 0 0 0 0 0 0 0 0 0 0 0 0 0 0 0 0 0 0 0 0 0 0 0
0 0 0 0 -0 -0 0 0 0 0 0 0 0 0 0 0 0 0 0 0 0 0 0 0 0 0 0 0 0 0 0 0 0 0 0 0 0 0 0 0 0 0 0
Wind_Speed_500mb
57 63 65 64 62 61 59 57 54 51 49 47 46 45 43 37 35 36 32 30 28 24 19 15 13 15 17 20 22 22 23 25 32 35 26 13 16 8 36 23 18 42 42
64 66 68 70 72 68 67 64 60 56 52 50 47 47 41 40 35 34 36 35 33 30 30 26 25 25 23 25 26 25 24 24 27 28 29 19 14 16 24 34 34 42 56
70 69 71 74 74 78 75 73 67 63 59 54 51 51 47 46 45 40 40 39 37 37 36 35 31 31 28 29 30 27 24 24 24 24 13 11 10 39 35 32 44 54 60
73 70 71 74 75 79 75 77 73 70 64 61 62 62 56 54 50 45 37 37 42 40 40 38 35 33 33 31 28 25 23 22 27 23 13 14 17 13 24 45 49 57 60
75 75 74 74 70 67 75 77 77 74 68 68 69 68 68 60 49 45 39 37 44 45 43 39 38 37 33 31 28 21 22 19 17 12 13 16 20 20 32 44 63 66 64
74 76 71 69 70 68 69 73 77 76 74 71 71 73 72 65 58 52 48 43 40 43 42 42 40 36 34 30 26 26 20 14 10 10 13 16 22 29 35 46 59 62 64
80 77 76 73 73 76 78 78 80 80 78 74 74 75 74 68 62 58 55 46 39 40 41 39 37 36 34 31 28 22 16 11 9 9 13 19 25 30 36 44 52 60 59
79 73 77 75 77 80 82 84 87 85 81 78 77 72 71 68 65 63 58 55 42 38 35 37 36 35 33 30 25 21 15 11 7 9 14 20 23 29 35 41 51 60 51
63 81 76 80 77 76 81 84 83 82 80 79 78 77 74 73 71 67 64 56 47 43 37 37 37 36 33 28 26 21 16 11 7 10 14 17 22 26 31 38 47 53 52
65 68 82 86 90 84 80 79 77 77 75 75 77 77 76 75 72 69 68 61 54 49 43 40 39 38 34 32 28 21 16 10 8 12 12 15 19 23 28 35 43 51 53
60 64 63 70 79 81 78 79 80 78 77 75 74 73 73 72 72 71 68 63 54 54 48 44 44 40 39 34 28 21 16 11 10 11 11 12 15 21 28 34 40 47 53
51 59 53 50 59 74 76 78 79 77 73 71 72 73 72 72 63 68 69 66 60 57 47 48 43 45 42 35 27 21 17 14 11 9 9 10 15 21 28 33 40 45 52
41 37 50 50 57 69 71 72 70 67 66 70 72 72 73 68 65 65 69 66 57 57 51 48 49 49 41 33 28 24 19 16 12 8 7 10 17 24 30 36 42 47 52
32 36 41 50 58 63 64 64 63 64 67 66 65 65 66 62 62 68 67 61 63 52 56 54 54 47 40 36 31 25 21 15 11 10 10 14 20 26 31 37 43 49 52
27 34 40 48 56 60 62 65 66 65 62 57 55 55 55 58 69 66 65 58 55 53 59 61 56 49 43 37 30 24 18 13 12 12 14 18 24 28 32 37 44 49 53
32 26 37 43 55 58 59 58 57 55 52 51 50 47 55 58 70 76 68 61 61 63 64 59 51 46 42 34 27 22 17 15 16 15 17 22 25 29 35 40 47 50 50
46 41 46 50 50 57 55 55 55 53 54 51 52 55 59 68 73 72 66 66 69 70 64 57 52 47 40 33 27 23 19 18 19 18 20 24 28 31 36 42 45 47 46
47 48 45 45 51 54 54 50 51 53 54 57 60 62 66 70 72 71 70 72 74 70 64 58 52 46 40 32 28 24 22 21 20 19 21 25 29 33 38 42 44 45 41
54 35 36 40 42 48 51 53 56 56 58 61 64 70 73 73 75 75 75 76 75 69 62 55 50 44 37 32 28 26 24 21 20 21 25 27 31 35 40 43 46 47 44
51 43 41 40 39 40 47 54 59 61 64 63 65 70 74 75 76 78 80 77 71 64 59 55 49 43 38 32 29 27 25 23 21 27 29 32 35 38 42 45 46 47 44
21 32 34 35 34 35 42 55 62 67 61 61 64 68 73 75 76 79 78 74 71 64 59 54 49 42 36 32 29 26 25 22 30 31 33 35 37 40 42 45 44 46 45
10 8 13 16 23 29 37 50 62 60 61 62 64 68 71 76 79 79 77 74 69 64 60 55 49 42 35 30 25 22 22 34 37 36 36 36 37 40 41 43 43 44 41
7 8 8 9 14 22 30 39 45 55 62 66 69 72 75 80 82 82 78 75 71 65 61 55 46 38 31 25 19 22 30 44 41 38 37 37 38 38 38 40 42 41 40
14 15 16 15 16 19 25 31 35 42 53 65 73 77 82 85 84 82 77 74 71 68 60 52 43 34 26 19 21 25 45 44 43 40 37 39 39 38 39 39 36 39 39
16 16 15 12 13 19 24 29 31 36 46 58 69 78 84 86 86 83 79 75 66 58 52 45 35 26 23 23 29 45 46 43 44 42 39 38 37 38 39 39 37 34 37
21 19 19 17 13 13 20 25 29 35 42 51 64 77 86 91 89 86 81 72 63 56 48 39 31 23 26 40 44 50 47 47 44 42 39 38 38 40 41 42 42 39 35
Wind_Direction_500mb
213 214 214 217 217 221 223 222 223 219 219 218 219 223 229 229 235 234 235 241 246 257 268 275 269 274 282 284 289 294 301 309 316 321 339 15 4 68 352 352 16 357 360
219 216 217 219 221 221 224 225 225 226 226 226 228 231 234 234 236 239 243 244 249 252 259 271 271 272 274 281 285 291 296 300 309 322 341 347 354 356 352 354 350 357 355
226 221 221 222 223 223 224 227 227 228 229 231 230 231 231 229 234 238 240 247 251 255 261 264 266 266 273 275 278 282 287 292 300 309 321 334 319 332 347 356 347 351 355
235 232 227 228 227 226 225 228 229 231 230 232 234 234 235 236 241 242 243 243 250 251 252 255 254 263 269 275 278 278 280 282 286 306 320 327 322 325 323 341 346 353 358
237 235 232 232 233 232 230 229 230 231 232 233 236 239 240 242 241 243 250 240 240 246 250 251 254 258 265 266 269 264 265 266 284 306 323 335 338 338 332 331 346 351 3
236 235 234 234 236 234 234 231 231 231 230 231 236 240 242 243 242 243 239 238 243 244 246 250 253 255 254 256 255 255 251 254 273 304 329 341 348 340 344 341 346 349 357
234 235 231 234 234 232 232 231 229 229 230 231 237 240 242 241 240 239 242 241 246 245 247 247 250 247 248 244 250 242 234 239 274 313 333 341 343 344 347 346 347 349 352
232 234 231 234 236 234 231 228 229 230 231 233 236 237 239 237 235 235 235 242 244 249 248 242 240 242 236 243 232 217 219 239 271 312 331 335 342 350 351 353 351 350 347
232 231 232 231 231 234 230 228 227 230 232 233 234 236 237 235 232 230 237 239 237 236 238 240 238 235 240 224 209 210 223 235 268 307 322 336 348 355 356 355 351 348 342
236 233 233 233 234 235 230 226 226 229 232 233 234 236 237 236 233 230 231 232 230 229 231 238 231 234 224 207 208 217 222 230 277 299 320 343 352 359 356 351 347 344 341
250 244 241 241 241 234 227 224 225 227 227 228 231 235 237 236 233 229 233 234 232 228 223 230 230 224 209 208 210 212 223 243 263 288 320 344 354 353 347 345 343 340 338
273 258 256 253 238 227 225 222 223 226 227 229 232 236 237 237 230 227 228 224 230 224 222 228 223 206 204 208 211 216 222 239 262 285 315 337 343 341 339 338 338 338 339
269 262 248 243 229 223 220 221 224 227 231 233 235 236 235 232 221 220 220 216 222 217 223 222 209 203 204 207 209 216 227 238 247 274 290 319 328 331 333 334 335 338 338
265 257 242 231 224 219 222 225 228 233 236 237 235 232 228 218 211 212 218 213 225 219 219 207 202 203 206 205 209 216 228 235 253 260 283 309 320 325 331 334 337 337 336
288 265 246 230 222 219 222 227 231 233 235 232 225 219 209 206 208 210 206 220 220 223 207 201 200 204 205 207 210 221 229 241 249 259 287 304 316 323 329 335 338 337 335
302 276 251 241 229 229 230 233 236 234 228 222 218 212 204 200 207 207 205 211 220 205 200 200 204 206 206 207 214 225 230 240 249 268 289 305 316 325 331 336 338 336 336
296 279 269 251 242 236 234 235 234 231 224 213 210 209 207 208 206 205 209 216 204 200 200 203 206 207 208 210 219 224 232 238 250 273 296 311 318 325 331 334 335 335 331
275 290 282 270 251 240 235 233 230 229 226 216 208 207 208 210 209 209 212 205 201 201 203 205 206 208 212 216 220 222 232 241 256 278 296 308 315 323 329 331 331 329 328
282 274 277 274 258 244 236 231 229 226 223 222 214 210 211 212 211 208 205 202 201 202 205 208 209 212 217 220 223 228 239 247 263 283 296 306 310 319 325 327 329 330 331
266 267 268 268 262 247 238 235 233 230 227 223 221 215 215 215 214 208 203 202 204 207 208 210 211 216 223 227 225 234 242 251 273 281 289 298 308 316 321 324 327 327 325
269 259 258 262 264 262 248 239 236 236 233 226 221 217 215 213 210 206 205 206 207 208 210 211 214 220 225 231 234 242 252 267 272 277 286 295 305 312 316 321 322 322 321
320 269 252 256 260 256 249 243 240 238 234 230 224 217 212 208 207 208 208 208 211 212 212 214 216 221 225 230 238 254 272 271 271 276 283 291 299 306 313 316 318 318 316
358 336 320 292 272 261 256 253 250 242 236 230 225 219 214 210 210 210 210 211 212 214 215 216 217 220 221 228 252 268 274 272 275 279 285 291 297 303 307 311 314 312 308
13 353 337 326 307 287 270 260 253 249 241 234 227 221 216 213 212 212 214 217 217 215 214 215 216 211 220 238 261 279 270 272 276 282 287 291 295 302 308 309 308 305 302
359 342 329 317 298 281 274 269 262 250 242 237 231 224 220 218 216 215 217 217 217 219 220 216 206 214 231 260 282 264 268 273 279 284 288 292 298 301 301 302 303 303 299
353 344 333 323 306 285 269 267 262 253 247 240 232 226 220 216 215 215 212 210 211 212 209 202 212 231 279 273 258 265 271 275 281 284 288 292 294 298 301 303 306 307 301
Wind_Speed_850mb
57 63 65 64 62 61 59 57 54 51 49 47 46 45 43 37 35 36 32 30 28 24 19 15 13 15 17 20 22 22 23 25 32 35 26 13 16 8 36 23 18 42 42
64 66 68 70 72 68 67 64 60 56 52 50 47 47 41 40 35 34 36 35 33 30 30 26 25 25 23 25 26 25 24 24 27 28 29 19 14 16 24 34 34 42 56
70 69 71 74 74 78 75 73 67 63 59 54 51 51 47 46 45 40 40 39 37 37 36 35 31 31 28 29 30 27 24 24 24 24 13 11 10 39 35 32 44 54 60
73 70 71 74 75 79 75 77 73 70 64 61 62 62 56 54 50 45 37 37 42 40 40 38 35 33 33 31 28 25 23 22 27 23 13 14 17 13 24 45 49 57 60
75 75 74 74 70 67 75 77 77 74 68 68 69 68 68 60 49 45 39 37 44 45 43 39 38 37 33 31 28 21 22 19 17 12 13 16 20 20 32 44 63 66 64
74 76 71 69 70 68 69 73 77 76 74 71 71 73 72 65 58 52 48 43 40 43 42 42 40 36 34 30 26 26 20 14 10 10 13 16 22 29 35 46 59 62 64
80 77 76 73 73 76 78 78 80 80 78 74 74 75 74 68 62 58 55 46 39 40 41 39 37 36 34 31 28 22 16 11 9 9 13 19 25 30 36 44 52 60 59
79 73 77 75 77 80 82 84 87 85 81 78 77 72 71 68 65 63 58 55 42 38 35 37 36 35 33 30 25 21 15 11 7 9 14 20 23 29 35 41 51 60 51
63 81 76 80 77 76 81 84 83 82 80 79 78 77 74 73 71 67 64 56 47 43 37 37 37 36 33 28 26 21 16 11 7 10 14 17 22 26 31 38 47 53 52
65 68 82 86 90 84 80 79 77 77 75 75 77 77 76 75 72 69 68 61 54 49 43 40 39 38 34 32 28 21 16 10 8 12 12 15 19 23 28 35 43 51 53
60 64 63 70 79 81 78 79 80 78 77 75 74 73 73 72 72 71 68 63 54 54 48 44 44 40 39 34 28 21 16 11 10 11 11 12 15 21 28 34 40 47 53
51 59 53 50 59 74 76 78 79 77 73 71 72 73 72 72 63 68 69 66 60 57 47 48 43 45 42 35 27 21 17 14 11 9 9 10 15 21 28 33 40 45 52
41 37 50 50 57 69 71 72 70 67 66 70 72 72 73 68 65 65 69 66 57 57 51 48 49 49 41 33 28 24 19 16 12 8 7 10 17 24 30 36 42 47 52
32 36 41 50 58 63 64 64 63 64 67 66 65 65 66 62 62 68 67 61 63 52 56 54 54 47 40 36 31 25 21 15 11 10 10 14 20 26 31 37 43 49 52
27 34 40 48 56 60 62 65 66 65 62 57 55 55 55 58 69 66 65 58 55 53 59 61 56 49 43 37 30 24 18 13 12 12 14 18 24 28 32 37 44 49 53
32 26 37 43 55 58 59 58 57 55 52 51 50 47 55 58 70 76 68 61 61 63 64 59 51 46 42 34 27 22 17 15 16 15 17 22 25 29 35 40 47 50 50
46 41 46 50 50 57 55 55 55 53 54 51 52 55 59 68 73 72 66 66 69 70 64 57 52 47 40 33 27 23 19 18 19 18 20 24 28 31 36 42 45 47 46
47 48 45 45 51 54 54 50 51 53 54 57 60 62 66 70 72 71 70 72 74 70 64 58 52 46 40 32 28 24 22 21 20 19 21 25 29 33 38 42 44 45 41
54 35 36 40 42 48 51 53 56 56 58 61 64 70 73 73 75 75 75 76 75 69 62 55 50 44 37 32 28 26 24 21 20 21 25 27 31 35 40 43 46 47 44
51 43 41 40 39 40 47 54 59 61 64 63 65 70 74 75 76 78 80 77 71 64 59 55 49 43 38 32 29 27 25 23 21 27 29 32 35 38 42 45 46 47 44
21 32 34 35 34 35 42 55 62 67 61 61 64 68 73 75 76 79 78 74 71 64 59 54 49 42 36 32 29 26 25 22 30 31 33 35 37 40 42 45 44 46 45
10 8 13 16 23 29 37 50 62 60 61 62 64 68 71 76 79 79 77 74 69 64 60 55 49 42 35 30 25 22 22 34 37 36 36 36 37 40 41 43 43 44 41
7 8 8 9 14 22 30 39 45 55 62 66 69 72 75 80 82 82 78 75 71 65 61 55 46 38 31 25 19 22 30 44 41 38 37 37 38 38 38 40 42 41 40
14 15 16 15 16 19 25 31 35 42 53 65 73 77 82 85 84 82 77 74 71 68 60 52 43 34 26 19 21 25 45 44 43 40 37 39 39 38 39 39 36 39 39
16 16 15 12 13 19 24 29 31 36 46 58 69 78 84 86 86 83 79 75 66 58 52 45 35 26 23 23 29 45 46 43 44 42 39 38 37 38 39 39 37 34 37
21 19 19 17 13 13 20 25 29 35 42 51 64 77 86 91 89 86 81 72 63 56 48 39 31 23 26 40 44 50 47 47 44 42 39 38 38 40 41 42 42 39 35
Wind_Direction_850mb
213 214 214 217 217 221 223 222 223 219 219 218 219 223 229 229 235 234 235 241 246 257 268 275 269 274 282 284 289 294 301 309 316 321 339 15 4 68 352 352 16 357 360
219 216 217 219 221 221 224 225 225 226 226 226 228 231 234 234 236 239 243 244 249 252 259 271 271 272 274 281 285 291 296 300 309 322 341 347 354 356 352 354 350 357 355
226 221 221 222 223 223 224 227 227 228 229 231 230 231 231 229 234 238 240 247 251 255 261 264 266 266 273 275 278 282 287 292 300 309 321 334 319 332 347 356 347 351 355
235 232 227 228 227 226 225 228 229 231 230 232 234 234 235 236 241 242 243 243 250 251 252 255 254 263 269 275 278 278 280 282 286 306 320 327 322 325 323 341 346 353 358
237 235 232 232 233 232 230 229 230 231 232 233 236 239 240 242 241 243 250 240 240 246 250 251 254 258 265 266 269 264 265 266 284 306 323 335 338 338 332 331 346 351 3
236 235 234 234 236 234 234 231 231 231 230 231 236 240 242 243 242 243 239 238 243 244 246 250 253 255 254 256 255 255 251 254 273 304 329 341 348 340 344 341 346 349 357
234 235 231 234 234 232 232 231 229 229 230 231 237 240 242 241 240 239 242 241 246 245 247 247 250 247 248 244 250 242 234 239 274 313 333 341 343 344 347 346 347 349 352
232 234 231 234 236 234 231 228 229 230 231 233 236 237 239 237 235 235 235 242 244 249 248 242 240 242 236 243 232 217 219 239 271 312 331 335 342 350 351 353 351 350 347
232 231 232 231 231 234 230 228 227 230 232 233 234 236 237 235 232 230 237 239 237 236 238 240 238 235 240 224 209 210 223 235 268 307 322 336 348 355 356 355 351 348 342
236 233 233 233 234 235 230 226 226 229 232 233 234 236 237 236 233 230 231 232 230 229 231 238 231 234 224 207 208 217 222 230 277 299 320 343 352 359 356 351 347 344 341
250 244 241 241 241 234 227 224 225 227 227 228 231 235 237 236 233 229 233 234 232 228 223 230 230 224 209 208 210 212 223 243 263 288 320 344 354 353 347 345 343 340 338
273 258 256 253 238 227 225 222 223 226 227 229 232 236 237 237 230 227 228 224 230 224 222 228 223 206 204 208 211 216 222 239 262 285 315 337 343 341 339 338 338 338 339
269 262 248 243 229 223 220 221 224 227 231 233 235 236 235 232 221 220 220 216 222 217 223 222 209 203 204 207 209 216 227 238 247 274 290 319 328 331 333 334 335 338 338
265 257 242 231 224 219 222 225 228 233 236 237 235 232 228 218 211 212 218 213 225 219 219 207 202 203 206 205 209 216 228 235 253 260 283 309 320 325 331 334 337 337 336
288 265 246 230 222 219 222 227 231 233 235 232 225 219 209 206 208 210 206 220 220 223 207 201 200 204 205 207 210 221 229 241 249 259 287 304 316 323 329 335 338 337 335
302 276 251 241 229 229 230 233 236 234 228 222 218 212 204 200 207 207 205 211 220 205 200 200 204 206 206 207 214 225 230 240 249 268 289 305 316 325 331 336 338 336 336
296 279 269 251 242 236 234 235 234 231 224 213 210 209 207 208 206 205 209 216 204 200 200 203 206 207 208 210 219 224 232 238 250 273 296 311 318 325 331 334 335 335 331
275 290 282 270 251 240 235 233 230 229 226 216 208 207 208 210 209 209 212 205 201 201 203 205 206 208 212 216 220 222 232 241 256 278 296 308 315 323 329 331 331 329 328
282 274 277 274 258 244 236 231 229 226 223 222 214 210 211 212 211 208 205 202 201 202 205 208 209 212 217 220 223 228 239 247 263 283 296 306 310 319 325 327 329 330 331
266 267 268 268 262 247 238 235 233 230 227 223 221 215 215 215 214 208 203 202 204 207 208 210 211 216 223 227 225 234 242 251 273 281 289 298 308 316 321 324 327 327 325
269 259 258 262 264 262 248 239 236 236 233 226 221 217 215 213 210 206 205 206 207 208 210 211 214 220 225 231 234 242 252 267 272 277 286 295 305 312 316 321 322 322 321
320 269 252 256 260 256 249 243 240 238 234 230 224 217 212 208 207 208 208 208 211 212 212 214 216 221 225 230 238 254 272 271 271 276 283 291 299 306 313 316 318 318 316
358 336 320 292 272 261 256 253 250 242 236 230 225 219 214 210 210 210 210 211 212 214 215 216 217 220 221 228 252 268 274 272 275 279 285 291 297 303 307 311 314 312 308
13 353 337 326 307 287 270 260 253 249 241 234 227 221 216 213 212 212 214 217 217 215 214 215 216 211 220 238 261 279 270 272 276 282 287 291 295 302 308 309 308 305 302
359 342 329 317 298 281 274 269 262 250 242 237 231 224 220 218 216 215 217 217 217 219 220 216 206 214 231 260 282 264 268 273 279 284 288 292 298 301 301 302 303 303 299
353 344 333 323 306 285 269 267 262 253 247 240 232 226 220 216 215 215 212 210 211 212 209 202 212 231 279 273 258 265 271 275 281 284 288 292 294 298 301 303 306 307 301